TimeCET,TemperatureF,Dew PointF,Humidity,Sea Level PressureIn,VisibilityMPH,Wind Direction,Wind SpeedMPH,Gust SpeedMPH,PrecipitationIn,Events,Conditions,WindDirDegrees,DateUTC
12:00 AM,32.0,32.0,100,29.24,2.8,Calm,Calm,-,N/A,,Overcast,0,2013-03-18 23:00:00
12:23 AM,32.0,32.0,100,29.21,3.1,Variable,2.3,-,N/A,,Overcast,0,2013-03-18 23:23:00
1:00 AM,32.0,32.0,100,29.21,3.7,Calm,Calm,-,N/A,,Overcast,0,2013-03-19 00:00:00
1:14 AM,32.0,32.0,100,29.21,3.1,Calm,Calm,-,N/A,,Overcast,0,2013-03-19 00:14:00
1:23 AM,32.0,32.0,100,29.21,2.8,Variable,1.2,-,N/A,Snow,Light Snow,0,2013-03-19 00:23:00
2:00 AM,33.8,32.0,93,29.21,2.5,Variable,1.2,-,N/A,Snow,Light Snow,0,2013-03-19 01:00:00
3:00 AM,35.6,35.6,100,29.18,5.0,SSW,5.8,-,N/A,,Overcast,210,2013-03-19 02:00:00
3:15 AM,37.4,35.6,93,29.18,4.3,SSW,10.4,-,N/A,Snow,Light Snow,200,2013-03-19 02:15:00
4:00 AM,35.6,33.8,93,29.18,5.0,South,13.8,-,N/A,Snow,Light Snow,190,2013-03-19 03:00:00
5:00 AM,35.6,33.8,93,29.18,4.3,South,10.4,-,N/A,Snow,Light Snow,190,2013-03-19 04:00:00
6:00 AM,35.6,32.0,87,29.21,5.0,SW,8.1,-,N/A,,Overcast,220,2013-03-19 05:00:00
6:18 AM,33.8,32.0,93,29.21,2.5,SW,10.4,-,N/A,Snow,Light Snow,230,2013-03-19 05:18:00
6:36 AM,33.8,32.0,93,29.24,1.7,WSW,10.4,-,N/A,Snow,Light Snow,240,2013-03-19 05:36:00
7:00 AM,32.0,32.0,100,29.24,1.6,WSW,10.4,-,N/A,Snow,Light Snow,240,2013-03-19 06:00:00
8:00 AM,33.8,32.0,93,29.27,1.7,WSW,11.5,-,N/A,Rain-Snow,Light Rain,250,2013-03-19 07:00:00
8:10 AM,33.8,32.0,93,29.30,2.2,WSW,9.2,-,N/A,Rain-Snow,Light Rain,250,2013-03-19 07:10:00
9:00 AM,33.8,32.0,93,29.30,2.8,WSW,9.2,-,N/A,Rain-Snow,Light Rain,250,2013-03-19 08:00:00
9:10 AM,33.8,32.0,93,29.33,3.7,WSW,8.1,-,N/A,Rain,Light Rain,240,2013-03-19 08:10:00
10:00 AM,35.6,32.0,87,29.36,6.2,WSW,12.7,-,N/A,Rain,Light Rain,250,2013-03-19 09:00:00
11:00 AM,33.8,30.2,87,29.39,3.1,West,9.2,-,N/A,Rain,Rain,260,2013-03-19 10:00:00
11:25 AM,33.8,32.0,93,29.39,5.0,WNW,5.8,-,N/A,Rain,Rain,290,2013-03-19 10:25:00
12:00 PM,33.8,32.0,93,29.42,6.2,WNW,4.6,-,N/A,,Overcast,300,2013-03-19 11:00:00
1:00 PM,35.6,30.2,81,29.44,6.2,WNW,3.5,-,N/A,,Mostly Cloudy,300,2013-03-19 12:00:00
2:00 PM,35.6,28.4,75,29.47,6.2,Calm,Calm,-,N/A,,Mostly Cloudy,0,2013-03-19 13:00:00
3:00 PM,37.4,28.4,70,29.47,6.2,Variable,1.2,-,N/A,,Overcast,0,2013-03-19 14:00:00
4:00 PM,39.2,30.2,70,29.50,6.2,SW,4.6,-,N/A,,Overcast,220,2013-03-19 15:00:00
5:00 PM,39.2,30.2,70,29.53,6.2,WSW,5.8,-,N/A,,Mostly Cloudy,240,2013-03-19 16:00:00
6:00 PM,37.4,32.0,81,29.53,6.2,West,4.6,-,N/A,,Mostly Cloudy,260,2013-03-19 17:00:00
7:00 PM,39.2,30.2,70,29.53,-9999.0,SW,4.6,-,N/A,,Clear,230,2013-03-19 18:00:00
8:00 PM,39.2,32.0,75,29.56,-9999.0,WSW,10.4,-,N/A,,Clear,240,2013-03-19 19:00:00
9:00 PM,39.2,30.2,70,29.56,-9999.0,SW,8.1,-,N/A,,Clear,230,2013-03-19 20:00:00
10:00 PM,39.2,30.2,70,29.59,-9999.0,SW,9.2,-,N/A,,Clear,220,2013-03-19 21:00:00
11:00 PM,39.2,30.2,70,29.59,-9999.0,SW,8.1,-,N/A,,Clear,230,2013-03-19 22:00:00